Multibeam Report for EX1206


Ship Name: Okeanos Explorer
Chief Scientist: Skarke, Adam
NOAA/OAR/OER
Source Organization: National Oceanic and Atmospheric Administration (NOAA)
Start Date: 2012-11-02
End Date: 2012-11-20


View ISO Metadata

Visit the full NCEI Bathymetry Viewer


Multibeam Bathymetry

Cruise Details

Project: Northeast and Mid-Atlantic Canyons Exploration
Instrument: Kongsberg EM302

Data Quality

Number of Files: 646
Number of Records: 1894172
BATHYMETRY DATA Quantity Percentage
Number of Beams 338059872 100%
Number of Good Beams 308613312 91.29%
Number of Zero Beams 0 0%
Number of Flagged Beams 29446560 8.71%
AMPLITUDE DATA Quantity Percentage
Number of Beams 338059872 100%
Number of Good Beams 308613312 91.29%
Number of Zero Beams 0 0%
Number of Flagged Beams 29446560 8.71%
SIDESCAN DATA Quantity Percentage
Number of Pixels 801327104 100%
Number of Good Pixels 542536617 67.7%
Number of Zero Pixels 0 0%
Number of Flagged Pixels 258790487 32.3%

Navigation Totals

Total Time: 340.517 hours
Total Track Length: 5205.9987 km
Average Speed: 15.289 km/hr (8.2554 knots)

Cruise Bounds

Northern Extent: 41.36197
Southern Extent: 35.550858
Western Extent: -75.034744
Eastern Extent: -68.97759

Limits

Minimum Sonar Depth 1.4025 Maximum Sonar Depth 7.5955
Minimum Altitude 18.7529 Maximum Altitude 3568.5505
Minimum Depth 19.1 Maximum Depth 3660.1365
Minimum Amplitude 0 Maximum Amplitude 97.4
Minimum Sidescan 0 Maximum Sidescan 96.4

File Information

Full Resolution Bathymetry as collected (raw): 308

Files File Size Description
0000_20121102_184746_EX1206_MB.all.mb58.gz 1.63MB Kongsberg multibeam vendor format
0001_20121102_201647_EX1206_MB.all.mb58.gz 281.49MB Kongsberg multibeam vendor format
0002_20121102_211647_EX1206_MB.all.mb58.gz 267.52MB Kongsberg multibeam vendor format
0003_20121102_221647_EX1206_MB.all.mb58.gz 250.30MB Kongsberg multibeam vendor format
0004_20121102_231647_EX1206_MB.all.mb58.gz 207.62MB Kongsberg multibeam vendor format
0005_20121103_000000_EX1206_MB.all.mb58.gz 265.45MB Kongsberg multibeam vendor format
0006_20121103_010000_EX1206_MB.all.mb58.gz 245.52MB Kongsberg multibeam vendor format
0007_20121103_020000_EX1206_MB.all.mb58.gz 236.01MB Kongsberg multibeam vendor format
0008_20121103_030001_EX1206_MB.all.mb58.gz 228.55MB Kongsberg multibeam vendor format
0009_20121103_040000_EX1206_MB.all.mb58.gz 240.45MB Kongsberg multibeam vendor format
0010_20121103_050000_EX1206_MB.all.mb58.gz 235.30MB Kongsberg multibeam vendor format
0011_20121103_060001_EX1206_MB.all.mb58.gz 169.78MB Kongsberg multibeam vendor format
0012_20121103_070001_EX1206_MB.all.mb58.gz 96.41MB Kongsberg multibeam vendor format
0013_20121103_074911_EX1206_MB.all.mb58.gz 125.13MB Kongsberg multibeam vendor format
0014_20121103_084910_EX1206_MB.all.mb58.gz 131.91MB Kongsberg multibeam vendor format
0015_20121103_094911_EX1206_MB.all.mb58.gz 112.01MB Kongsberg multibeam vendor format
0016_20121103_104912_EX1206_MB.all.mb58.gz 116.76MB Kongsberg multibeam vendor format
0017_20121103_114911_EX1206_MB.all.mb58.gz 149.54MB Kongsberg multibeam vendor format
0018_20121103_124911_EX1206_MB.all.mb58.gz 128.67MB Kongsberg multibeam vendor format
0019_20121103_134910_EX1206_MB.all.mb58.gz 35.21MB Kongsberg multibeam vendor format
0020_20121103_140906_EX1206_MB.all.mb58.gz 102.86MB Kongsberg multibeam vendor format
0021_20121103_150908_EX1206_MB.all.mb58.gz 101.35MB Kongsberg multibeam vendor format
0022_20121103_160906_EX1206_MB.all.mb58.gz 123.60MB Kongsberg multibeam vendor format
0023_20121103_170906_EX1206_MB.all.mb58.gz 163.54MB Kongsberg multibeam vendor format
0024_20121103_180906_EX1206_MB.all.mb58.gz 178.35MB Kongsberg multibeam vendor format
0025_20121103_190905_EX1206_MB.all.mb58.gz 166.51MB Kongsberg multibeam vendor format
0026_20121103_200906_EX1206_MB.all.mb58.gz 198.17MB Kongsberg multibeam vendor format
0027_20121103_210906_EX1206_MB.all.mb58.gz 144.06MB Kongsberg multibeam vendor format
0028_20121103_220907_EX1206_MB.all.mb58.gz 104.64MB Kongsberg multibeam vendor format
0029_20121103_230905_EX1206_MB.all.mb58.gz 133.77MB Kongsberg multibeam vendor format
0030_20121104_000000_EX1206_MB.all.mb58.gz 131.80MB Kongsberg multibeam vendor format
0031_20121104_010002_EX1206_MB.all.mb58.gz 126.37MB Kongsberg multibeam vendor format
0032_20121104_020000_EX1206_MB.all.mb58.gz 128.39MB Kongsberg multibeam vendor format
0033_20121104_030002_EX1206_MB.all.mb58.gz 113.00MB Kongsberg multibeam vendor format
0034_20121104_040001_EX1206_MB.all.mb58.gz 139.18MB Kongsberg multibeam vendor format
0035_20121104_050001_EX1206_MB.all.mb58.gz 135.86MB Kongsberg multibeam vendor format
0036_20121104_060000_EX1206_MB.all.mb58.gz 112.25MB Kongsberg multibeam vendor format
0037_20121104_070001_EX1206_MB.all.mb58.gz 114.78MB Kongsberg multibeam vendor format
0038_20121104_080001_EX1206_MB.all.mb58.gz 110.97MB Kongsberg multibeam vendor format
0039_20121104_090001_EX1206_MB.all.mb58.gz 124.04MB Kongsberg multibeam vendor format
0040_20121104_100000_EX1206_MB.all.mb58.gz 126.63MB Kongsberg multibeam vendor format
0041_20121104_110000_EX1206_MB.all.mb58.gz 127.80MB Kongsberg multibeam vendor format
0042_20121104_120000_EX1206_MB.all.mb58.gz 196.34MB Kongsberg multibeam vendor format
0043_20121104_130000_EX1206_MB.all.mb58.gz 180.50MB Kongsberg multibeam vendor format
0044_20121104_135137_EX1206_MB.all.mb58.gz 32.19MB Kongsberg multibeam vendor format
0045_20121104_140112_EX1206_MB.all.mb58.gz 136.44MB Kongsberg multibeam vendor format
0046_20121104_150112_EX1206_MB.all.mb58.gz 106.58MB Kongsberg multibeam vendor format
0047_20121104_154850_EX1206_MB.all.mb58.gz 21.70MB Kongsberg multibeam vendor format
0048_20121104_155541_EX1206_MB.all.mb58.gz 152.02MB Kongsberg multibeam vendor format
0049_20121104_165545_EX1206_MB.all.mb58.gz 118.58MB Kongsberg multibeam vendor format
0050_20121104_173859_EX1206_MB.all.mb58.gz 36.73MB Kongsberg multibeam vendor format
0051_20121104_175305_EX1206_MB.all.mb58.gz 101.95MB Kongsberg multibeam vendor format
0052_20121104_185303_EX1206_MB.all.mb58.gz 150.03MB Kongsberg multibeam vendor format
0053_20121104_205303_EX1206_MB.all.mb58.gz 49.25MB Kongsberg multibeam vendor format
0054_20121104_213401_EX1206_MB.all.mb58.gz 24.42MB Kongsberg multibeam vendor format
0055_20121104_215429_EX1206_MB.all.mb58.gz 144.93MB Kongsberg multibeam vendor format
0056_20121104_235430_EX1206_MB.all.mb58.gz 5.34MB Kongsberg multibeam vendor format
0057_20121104_235832_EX1206_MB.all.mb58.gz 1.86MB Kongsberg multibeam vendor format
0058_20121105_000003_EX1206_MB.all.mb58.gz 233.24MB Kongsberg multibeam vendor format
0059_20121105_020001_EX1206_MB.all.mb58.gz 213.67MB Kongsberg multibeam vendor format
0060_20121105_040001_EX1206_MB.all.mb58.gz 105.16MB Kongsberg multibeam vendor format
0061_20121105_052727_EX1206_MB.all.mb58.gz 6.39MB Kongsberg multibeam vendor format
0062_20121105_053430_EX1206_MB.all.mb58.gz 121.54MB Kongsberg multibeam vendor format
0063_20121105_073428_EX1206_MB.all.mb58.gz 126.98MB Kongsberg multibeam vendor format
0064_20121105_093431_EX1206_MB.all.mb58.gz 110.29MB Kongsberg multibeam vendor format
0065_20121105_113430_EX1206_MB.all.mb58.gz 106.44MB Kongsberg multibeam vendor format
0066_20121105_133432_EX1206_MB.all.mb58.gz 105.15MB Kongsberg multibeam vendor format
0067_20121105_153426_EX1206_MB.all.mb58.gz 106.38MB Kongsberg multibeam vendor format
0068_20121105_173432_EX1206_MB.all.mb58.gz 111.15MB Kongsberg multibeam vendor format
0069_20121105_193433_EX1206_MB.all.mb58.gz 71.46MB Kongsberg multibeam vendor format
0070_20121105_205045_EX1206_MB.all.mb58.gz 23.21MB Kongsberg multibeam vendor format
0071_20121105_211536_EX1206_MB.all.mb58.gz 111.52MB Kongsberg multibeam vendor format
0072_20121105_231536_EX1206_MB.all.mb58.gz 40.96MB Kongsberg multibeam vendor format
0073_20121106_000004_EX1206_MB.all.mb58.gz 109.14MB Kongsberg multibeam vendor format
0074_20121106_020005_EX1206_MB.all.mb58.gz 108.50MB Kongsberg multibeam vendor format
0075_20121106_040005_EX1206_MB.all.mb58.gz 107.60MB Kongsberg multibeam vendor format
0076_20121106_060002_EX1206_MB.all.mb58.gz 109.73MB Kongsberg multibeam vendor format
0077_20121106_080003_EX1206_MB.all.mb58.gz 110.11MB Kongsberg multibeam vendor format
0078_20121106_100007_EX1206_MB.all.mb58.gz 42.75MB Kongsberg multibeam vendor format
0079_20121106_113549_EX1206_MB.all.mb58.gz 111.75MB Kongsberg multibeam vendor format
0080_20121106_133544_EX1206_MB.all.mb58.gz 111.29MB Kongsberg multibeam vendor format
0081_20121106_153547_EX1206_MB.all.mb58.gz 110.40MB Kongsberg multibeam vendor format
0082_20121106_173545_EX1206_MB.all.mb58.gz 72.81MB Kongsberg multibeam vendor format
0083_20121106_185541_EX1206_MB.all.mb58.gz 112.28MB Kongsberg multibeam vendor format
0084_20121106_205537_EX1206_MB.all.mb58.gz 327.28MB Kongsberg multibeam vendor format
0085_20121106_225536_EX1206_MB.all.mb58.gz 343.80MB Kongsberg multibeam vendor format
0086_20121109_204811_EX1206_MB.all.mb58.gz 288.24MB Kongsberg multibeam vendor format
0087_20121109_224812_EX1206_MB.all.mb58.gz 55.53MB Kongsberg multibeam vendor format
0088_20121109_234658_EX1206_MB.all.mb58.gz 6.13MB Kongsberg multibeam vendor format
0089_20121109_235333_EX1206_MB.all.mb58.gz 6.26MB Kongsberg multibeam vendor format
0090_20121110_000024_EX1206_MB.all.mb58.gz 109.82MB Kongsberg multibeam vendor format
0091_20121110_020028_EX1206_MB.all.mb58.gz 110.68MB Kongsberg multibeam vendor format
0092_20121110_040023_EX1206_MB.all.mb58.gz 112.19MB Kongsberg multibeam vendor format
0093_20121110_060026_EX1206_MB.all.mb58.gz 41.28MB Kongsberg multibeam vendor format
0094_20121110_064501_EX1206_MB.all.mb58.gz 26.99MB Kongsberg multibeam vendor format
0095_20121110_071350_EX1206_MB.all.mb58.gz 115.24MB Kongsberg multibeam vendor format
0096_20121110_091348_EX1206_MB.all.mb58.gz 113.45MB Kongsberg multibeam vendor format
0097_20121110_111349_EX1206_MB.all.mb58.gz 111.66MB Kongsberg multibeam vendor format
0098_20121110_131346_EX1206_MB.all.mb58.gz 82.25MB Kongsberg multibeam vendor format
0099_20121110_144318_EX1206_MB.all.mb58.gz 108.97MB Kongsberg multibeam vendor format
0100_20121110_164316_EX1206_MB.all.mb58.gz 109.36MB Kongsberg multibeam vendor format
0101_20121110_184318_EX1206_MB.all.mb58.gz 112.00MB Kongsberg multibeam vendor format
0102_20121110_204319_EX1206_MB.all.mb58.gz 27.63MB Kongsberg multibeam vendor format
0103_20121110_211238_EX1206_MB.all.mb58.gz 22.08MB Kongsberg multibeam vendor format
0104_20121110_213612_EX1206_MB.all.mb58.gz 111.50MB Kongsberg multibeam vendor format
0105_20121110_233609_EX1206_MB.all.mb58.gz 23.27MB Kongsberg multibeam vendor format
0106_20121111_000135_EX1206_MB.all.mb58.gz 108.67MB Kongsberg multibeam vendor format
0107_20121111_020133_EX1206_MB.all.mb58.gz 108.61MB Kongsberg multibeam vendor format
0108_20121111_040130_EX1206_MB.all.mb58.gz 10.26MB Kongsberg multibeam vendor format
0109_20121111_041249_EX1206_MB.all.mb58.gz 18.97MB Kongsberg multibeam vendor format
0110_20121111_043323_EX1206_MB.all.mb58.gz 110.43MB Kongsberg multibeam vendor format
0111_20121111_063319_EX1206_MB.all.mb58.gz 110.59MB Kongsberg multibeam vendor format
0112_20121111_083317_EX1206_MB.all.mb58.gz 113.36MB Kongsberg multibeam vendor format
0113_20121111_103319_EX1206_MB.all.mb58.gz 66.20MB Kongsberg multibeam vendor format
0114_20121111_114223_EX1206_MB.all.mb58.gz 22.03MB Kongsberg multibeam vendor format
0115_20121111_120537_EX1206_MB.all.mb58.gz 114.51MB Kongsberg multibeam vendor format
0116_20121111_140538_EX1206_MB.all.mb58.gz 110.82MB Kongsberg multibeam vendor format
0117_20121111_160541_EX1206_MB.all.mb58.gz 109.36MB Kongsberg multibeam vendor format
0118_20121111_180538_EX1206_MB.all.mb58.gz 109.81MB Kongsberg multibeam vendor format
0119_20121111_200538_EX1206_MB.all.mb58.gz 110.40MB Kongsberg multibeam vendor format
0120_20121111_220538_EX1206_MB.all.mb58.gz 20.33MB Kongsberg multibeam vendor format
0121_20121111_222723_EX1206_MB.all.mb58.gz 16.94MB Kongsberg multibeam vendor format
0122_20121111_224527_EX1206_MB.all.mb58.gz 54.54MB Kongsberg multibeam vendor format
0123_20121111_234347_EX1206_MB.all.mb58.gz 15.18MB Kongsberg multibeam vendor format
0124_20121112_000005_EX1206_MB.all.mb58.gz 111.78MB Kongsberg multibeam vendor format
0125_20121112_020005_EX1206_MB.all.mb58.gz 113.83MB Kongsberg multibeam vendor format
0126_20121112_040005_EX1206_MB.all.mb58.gz 23.07MB Kongsberg multibeam vendor format
0127_20121112_042429_EX1206_MB.all.mb58.gz 116.79MB Kongsberg multibeam vendor format
0128_20121112_062429_EX1206_MB.all.mb58.gz 114.04MB Kongsberg multibeam vendor format
0129_20121112_082429_EX1206_MB.all.mb58.gz 112.10MB Kongsberg multibeam vendor format
0130_20121112_102432_EX1206_MB.all.mb58.gz 110.91MB Kongsberg multibeam vendor format
0131_20121112_122431_EX1206_MB.all.mb58.gz 109.66MB Kongsberg multibeam vendor format
0132_20121112_142429_EX1206_MB.all.mb58.gz 111.78MB Kongsberg multibeam vendor format
0133_20121112_162430_EX1206_MB.all.mb58.gz 97.34MB Kongsberg multibeam vendor format
0134_20121112_180350_EX1206_MB.all.mb58.gz 11.17MB Kongsberg multibeam vendor format
0135_20121112_181502_EX1206_MB.all.mb58.gz 32.60MB Kongsberg multibeam vendor format
0136_20121112_184740_EX1206_MB.all.mb58.gz 22.92MB Kongsberg multibeam vendor format
0137_20121112_191026_EX1206_MB.all.mb58.gz 34.95MB Kongsberg multibeam vendor format
0138_20121112_194520_EX1206_MB.all.mb58.gz 17.30MB Kongsberg multibeam vendor format
0139_20121112_200252_EX1206_MB.all.mb58.gz 14.08MB Kongsberg multibeam vendor format
0140_20121112_201714_EX1206_MB.all.mb58.gz 5.70MB Kongsberg multibeam vendor format
0141_20121112_202307_EX1206_MB.all.mb58.gz 25.80MB Kongsberg multibeam vendor format
0142_20121112_205023_EX1206_MB.all.mb58.gz 112.99MB Kongsberg multibeam vendor format
0143_20121112_225028_EX1206_MB.all.mb58.gz 65.84MB Kongsberg multibeam vendor format
0144_20121113_000218_EX1206_MB.all.mb58.gz 110.82MB Kongsberg multibeam vendor format
0145_20121113_020205_EX1206_MB.all.mb58.gz 112.00MB Kongsberg multibeam vendor format
0146_20121113_040202_EX1206_MB.all.mb58.gz 21.04MB Kongsberg multibeam vendor format
0147_20121113_042434_EX1206_MB.all.mb58.gz 21.86MB Kongsberg multibeam vendor format
0148_20121113_044742_EX1206_MB.all.mb58.gz 113.87MB Kongsberg multibeam vendor format
0149_20121113_064739_EX1206_MB.all.mb58.gz 114.53MB Kongsberg multibeam vendor format
0150_20121113_084743_EX1206_MB.all.mb58.gz 112.89MB Kongsberg multibeam vendor format
0151_20121113_104742_EX1206_MB.all.mb58.gz 103.82MB Kongsberg multibeam vendor format
0152_20121113_123512_EX1206_MB.all.mb58.gz 8.22MB Kongsberg multibeam vendor format
0153_20121113_132350_EX1206_MB.all.mb58.gz 116.10MB Kongsberg multibeam vendor format
0154_20121113_152351_EX1206_MB.all.mb58.gz 114.08MB Kongsberg multibeam vendor format
0155_20121113_172349_EX1206_MB.all.mb58.gz 118.43MB Kongsberg multibeam vendor format
0156_20121113_192353_EX1206_MB.all.mb58.gz 70.86MB Kongsberg multibeam vendor format
0157_20121113_203811_EX1206_MB.all.mb58.gz 117.80MB Kongsberg multibeam vendor format
0158_20121113_223810_EX1206_MB.all.mb58.gz 55.10MB Kongsberg multibeam vendor format
0159_20121113_233330_EX1206_MB.all.mb58.gz 23.65MB Kongsberg multibeam vendor format
0160_20121114_000005_EX1206_MB.all.mb58.gz 118.30MB Kongsberg multibeam vendor format
0161_20121114_020005_EX1206_MB.all.mb58.gz 67.65MB Kongsberg multibeam vendor format
0162_20121114_030832_EX1206_MB.all.mb58.gz 116.71MB Kongsberg multibeam vendor format
0163_20121114_050833_EX1206_MB.all.mb58.gz 121.90MB Kongsberg multibeam vendor format
0164_20121114_070837_EX1206_MB.all.mb58.gz 112.34MB Kongsberg multibeam vendor format
0165_20121114_090251_EX1206_MB.all.mb58.gz 10.76MB Kongsberg multibeam vendor format
0166_20121114_091345_EX1206_MB.all.mb58.gz 15.23MB Kongsberg multibeam vendor format
0167_20121114_092922_EX1206_MB.all.mb58.gz 12.45MB Kongsberg multibeam vendor format
0168_20121114_094211_EX1206_MB.all.mb58.gz 113.03MB Kongsberg multibeam vendor format
0169_20121114_114223_EX1206_MB.all.mb58.gz 30.77MB Kongsberg multibeam vendor format
0170_20121114_121557_EX1206_MB.all.mb58.gz 107.45MB Kongsberg multibeam vendor format
0171_20121114_141604_EX1206_MB.all.mb58.gz 105.41MB Kongsberg multibeam vendor format
0172_20121114_161602_EX1206_MB.all.mb58.gz 100.09MB Kongsberg multibeam vendor format
0173_20121114_181602_EX1206_MB.all.mb58.gz 70.20MB Kongsberg multibeam vendor format
0174_20121114_193952_EX1206_MB.all.mb58.gz 13.62MB Kongsberg multibeam vendor format
0175_20121114_195449_EX1206_MB.all.mb58.gz 93.73MB Kongsberg multibeam vendor format
0176_20121114_213524_EX1206_MB.all.mb58.gz 38.33MB Kongsberg multibeam vendor format
0178_20121114_221659_EX1206_MB.all.mb58.gz 102.11MB Kongsberg multibeam vendor format
0179_20121115_000651_EX1206_MB.all.mb58.gz 62.77MB Kongsberg multibeam vendor format
0180_20121115_011427_EX1206_MB.all.mb58.gz 102.32MB Kongsberg multibeam vendor format
0181_20121115_031418_EX1206_MB.all.mb58.gz 104.03MB Kongsberg multibeam vendor format
0182_20121115_051420_EX1206_MB.all.mb58.gz 111.41MB Kongsberg multibeam vendor format
0183_20121115_071418_EX1206_MB.all.mb58.gz 108.25MB Kongsberg multibeam vendor format
0184_20121115_091418_EX1206_MB.all.mb58.gz 102.87MB Kongsberg multibeam vendor format
0185_20121115_111416_EX1206_MB.all.mb58.gz 101.57MB Kongsberg multibeam vendor format
0186_20121115_131416_EX1206_MB.all.mb58.gz 98.67MB Kongsberg multibeam vendor format
0187_20121115_151417_EX1206_MB.all.mb58.gz 95.86MB Kongsberg multibeam vendor format
0188_20121115_171418_EX1206_MB.all.mb58.gz 99.99MB Kongsberg multibeam vendor format
0189_20121115_191419_EX1206_MB.all.mb58.gz 102.92MB Kongsberg multibeam vendor format
0190_20121115_211420_EX1206_MB.all.mb58.gz 104.96MB Kongsberg multibeam vendor format
0191_20121115_231450_EX1206_MB.all.mb58.gz 40.74MB Kongsberg multibeam vendor format
0192_20121116_000005_EX1206_MB.all.mb58.gz 70.71MB Kongsberg multibeam vendor format
0193_20121116_012639_EX1206_MB.all.mb58.gz 14.23MB Kongsberg multibeam vendor format
0194_20121116_014502_EX1206_MB.all.mb58.gz 106.40MB Kongsberg multibeam vendor format
0195_20121116_034503_EX1206_MB.all.mb58.gz 49.01MB Kongsberg multibeam vendor format
0196_20121116_043829_EX1206_MB.all.mb58.gz 110.73MB Kongsberg multibeam vendor format
0197_20121116_063829_EX1206_MB.all.mb58.gz 31.29MB Kongsberg multibeam vendor format
0198_20121116_071211_EX1206_MB.all.mb58.gz 17.10MB Kongsberg multibeam vendor format
0199_20121116_073018_EX1206_MB.all.mb58.gz 116.39MB Kongsberg multibeam vendor format
0200_20121116_093016_EX1206_MB.all.mb58.gz 14.80MB Kongsberg multibeam vendor format
0201_20121116_094524_EX1206_MB.all.mb58.gz 24.78MB Kongsberg multibeam vendor format
0202_20121116_101006_EX1206_MB.all.mb58.gz 124.44MB Kongsberg multibeam vendor format
0203_20121116_121008_EX1206_MB.all.mb58.gz 46.23MB Kongsberg multibeam vendor format
0204_20121116_125525_EX1206_MB.all.mb58.gz 14.07MB Kongsberg multibeam vendor format
0205_20121116_130904_EX1206_MB.all.mb58.gz 135.94MB Kongsberg multibeam vendor format
0206_20121116_150904_EX1206_MB.all.mb58.gz 27.11MB Kongsberg multibeam vendor format
0207_20121116_153510_EX1206_MB.all.mb58.gz 157.76MB Kongsberg multibeam vendor format
0208_20121116_173506_EX1206_MB.all.mb58.gz 55.80MB Kongsberg multibeam vendor format
0209_20121116_181306_EX1206_MB.all.mb58.gz 22.23MB Kongsberg multibeam vendor format
0210_20121116_182728_EX1206_MB.all.mb58.gz 184.31MB Kongsberg multibeam vendor format
0211_20121116_202731_EX1206_MB.all.mb58.gz 47.37MB Kongsberg multibeam vendor format
0212_20121116_210205_EX1206_MB.all.mb58.gz 199.66MB Kongsberg multibeam vendor format
0213_20121116_230204_EX1206_MB.all.mb58.gz 74.58MB Kongsberg multibeam vendor format
0214_20121116_234104_EX1206_MB.all.mb58.gz 27.39MB Kongsberg multibeam vendor format
0215_20121116_235536_EX1206_MB.all.mb58.gz 8.56MB Kongsberg multibeam vendor format
0216_20121117_000001_EX1206_MB.all.mb58.gz 223.14MB Kongsberg multibeam vendor format
0217_20121117_020002_EX1206_MB.all.mb58.gz 28.62MB Kongsberg multibeam vendor format
0218_20121117_021643_EX1206_MB.all.mb58.gz 19.62MB Kongsberg multibeam vendor format
0219_20121117_022709_EX1206_MB.all.mb58.gz 235.79MB Kongsberg multibeam vendor format
0220_20121117_042709_EX1206_MB.all.mb58.gz 106.94MB Kongsberg multibeam vendor format
0221_20121117_051635_EX1206_MB.all.mb58.gz 22.99MB Kongsberg multibeam vendor format
0222_20121117_052720_EX1206_MB.all.mb58.gz 261.48MB Kongsberg multibeam vendor format
0223_20121117_072721_EX1206_MB.all.mb58.gz 82.30MB Kongsberg multibeam vendor format
0224_20121117_080749_EX1206_MB.all.mb58.gz 19.29MB Kongsberg multibeam vendor format
0225_20121117_081721_EX1206_MB.all.mb58.gz 205.73MB Kongsberg multibeam vendor format
0226_20121117_095054_EX1206_MB.all.mb58.gz 22.43MB Kongsberg multibeam vendor format
0227_20121117_095924_EX1206_MB.all.mb58.gz 36.40MB Kongsberg multibeam vendor format
0228_20121117_101327_EX1206_MB.all.mb58.gz 212.21MB Kongsberg multibeam vendor format
0229_20121117_114854_EX1206_MB.all.mb58.gz 21.63MB Kongsberg multibeam vendor format
0230_20121117_120057_EX1206_MB.all.mb58.gz 180.64MB Kongsberg multibeam vendor format
0231_20121117_131834_EX1206_MB.all.mb58.gz 34.52MB Kongsberg multibeam vendor format
0232_20121117_133030_EX1206_MB.all.mb58.gz 128.40MB Kongsberg multibeam vendor format
0233_20121117_142352_EX1206_MB.all.mb58.gz 7.36MB Kongsberg multibeam vendor format
0234_20121117_142800_EX1206_MB.all.mb58.gz 33.59MB Kongsberg multibeam vendor format
0235_20121117_144534_EX1206_MB.all.mb58.gz 59.59MB Kongsberg multibeam vendor format
0236_20121117_151140_EX1206_MB.all.mb58.gz 27.94MB Kongsberg multibeam vendor format
0237_20121117_152310_EX1206_MB.all.mb58.gz 6.98MB Kongsberg multibeam vendor format
0238_20121117_152545_EX1206_MB.all.mb58.gz 74.07MB Kongsberg multibeam vendor format
0239_20121117_155656_EX1206_MB.all.mb58.gz 19.15MB Kongsberg multibeam vendor format
0240_20121117_160509_EX1206_MB.all.mb58.gz 179.23MB Kongsberg multibeam vendor format
0241_20121117_171551_EX1206_MB.all.mb58.gz 304.81MB Kongsberg multibeam vendor format
0242_20121117_191318_EX1206_MB.all.mb58.gz 156.28MB Kongsberg multibeam vendor format
0243_20121117_200523_EX1206_MB.all.mb58.gz 29.12MB Kongsberg multibeam vendor format
0244_20121117_201400_EX1206_MB.all.mb58.gz 63.11MB Kongsberg multibeam vendor format
0245_20121117_204452_EX1206_MB.all.mb58.gz 38.25MB Kongsberg multibeam vendor format
0246_20121117_211132_EX1206_MB.all.mb58.gz 119.91MB Kongsberg multibeam vendor format
0247_20121117_220925_EX1206_MB.all.mb58.gz 146.34MB Kongsberg multibeam vendor format
0248_20121117_231430_EX1206_MB.all.mb58.gz 19.86MB Kongsberg multibeam vendor format
0249_20121117_232745_EX1206_MB.all.mb58.gz 36.80MB Kongsberg multibeam vendor format
0250_20121118_000006_EX1206_MB.all.mb58.gz 37.94MB Kongsberg multibeam vendor format
0251_20121118_003903_EX1206_MB.all.mb58.gz 32.31MB Kongsberg multibeam vendor format
0252_20121118_011301_EX1206_MB.all.mb58.gz 108.63MB Kongsberg multibeam vendor format
0253_20121118_031304_EX1206_MB.all.mb58.gz 109.75MB Kongsberg multibeam vendor format
0254_20121118_051301_EX1206_MB.all.mb58.gz 29.95MB Kongsberg multibeam vendor format
0255_20121118_054511_EX1206_MB.all.mb58.gz 113.71MB Kongsberg multibeam vendor format
0256_20121118_074510_EX1206_MB.all.mb58.gz 97.74MB Kongsberg multibeam vendor format
0257_20121118_092817_EX1206_MB.all.mb58.gz 21.26MB Kongsberg multibeam vendor format
0258_20121118_095031_EX1206_MB.all.mb58.gz 111.70MB Kongsberg multibeam vendor format
0259_20121118_115033_EX1206_MB.all.mb58.gz 78.27MB Kongsberg multibeam vendor format
0260_20121118_131445_EX1206_MB.all.mb58.gz 19.68MB Kongsberg multibeam vendor format
0261_20121118_133515_EX1206_MB.all.mb58.gz 114.06MB Kongsberg multibeam vendor format
0262_20121118_153514_EX1206_MB.all.mb58.gz 101.25MB Kongsberg multibeam vendor format
0263_20121118_172140_EX1206_MB.all.mb58.gz 17.21MB Kongsberg multibeam vendor format
0264_20121118_173916_EX1206_MB.all.mb58.gz 39.84MB Kongsberg multibeam vendor format
0265_20121118_182039_EX1206_MB.all.mb58.gz 10.54MB Kongsberg multibeam vendor format
0266_20121118_183113_EX1206_MB.all.mb58.gz 18.89MB Kongsberg multibeam vendor format
0267_20121118_185135_EX1206_MB.all.mb58.gz 15.20MB Kongsberg multibeam vendor format
0268_20121118_190719_EX1206_MB.all.mb58.gz 17.29MB Kongsberg multibeam vendor format
0269_20121118_192505_EX1206_MB.all.mb58.gz 140.57MB Kongsberg multibeam vendor format
0270_20121118_211114_EX1206_MB.all.mb58.gz 20.70MB Kongsberg multibeam vendor format
0271_20121118_212330_EX1206_MB.all.mb58.gz 78.20MB Kongsberg multibeam vendor format
0272_20121118_220512_EX1206_MB.all.mb58.gz 22.61MB Kongsberg multibeam vendor format
0274_20121118_221557_EX1206_MB.all.mb58.gz 92.79MB Kongsberg multibeam vendor format
0275_20121118_230923_EX1206_MB.all.mb58.gz 14.75MB Kongsberg multibeam vendor format
0276_20121118_232229_EX1206_MB.all.mb58.gz 60.61MB Kongsberg multibeam vendor format
0277_20121119_000002_EX1206_MB.all.mb58.gz 16.36MB Kongsberg multibeam vendor format
0278_20121119_000837_EX1206_MB.all.mb58.gz 18.04MB Kongsberg multibeam vendor format
0279_20121119_001631_EX1206_MB.all.mb58.gz 74.46MB Kongsberg multibeam vendor format
0280_20121119_010237_EX1206_MB.all.mb58.gz 12.14MB Kongsberg multibeam vendor format
0281_20121119_011304_EX1206_MB.all.mb58.gz 11.64MB Kongsberg multibeam vendor format
0282_20121119_012215_EX1206_MB.all.mb58.gz 14.90MB Kongsberg multibeam vendor format
0283_20121119_013707_EX1206_MB.all.mb58.gz 173.24MB Kongsberg multibeam vendor format
0284_20121119_033708_EX1206_MB.all.mb58.gz 54.72MB Kongsberg multibeam vendor format
0285_20121119_040854_EX1206_MB.all.mb58.gz 21.25MB Kongsberg multibeam vendor format
0286_20121119_041943_EX1206_MB.all.mb58.gz 136.21MB Kongsberg multibeam vendor format
0287_20121119_061943_EX1206_MB.all.mb58.gz 37.90MB Kongsberg multibeam vendor format
0288_20121119_065806_EX1206_MB.all.mb58.gz 15.87MB Kongsberg multibeam vendor format
0289_20121119_071353_EX1206_MB.all.mb58.gz 143.13MB Kongsberg multibeam vendor format
0290_20121119_091351_EX1206_MB.all.mb58.gz 35.15MB Kongsberg multibeam vendor format
0291_20121119_093728_EX1206_MB.all.mb58.gz 8.91MB Kongsberg multibeam vendor format
0292_20121119_094400_EX1206_MB.all.mb58.gz 34.50MB Kongsberg multibeam vendor format
0293_20121119_101819_EX1206_MB.all.mb58.gz 32.94MB Kongsberg multibeam vendor format
0294_20121119_104743_EX1206_MB.all.mb58.gz 68.28MB Kongsberg multibeam vendor format
0295_20121119_115123_EX1206_MB.all.mb58.gz 66.36MB Kongsberg multibeam vendor format
0296_20121119_123358_EX1206_MB.all.mb58.gz 8.33MB Kongsberg multibeam vendor format
0297_20121119_123743_EX1206_MB.all.mb58.gz 172.78MB Kongsberg multibeam vendor format
0298_20121119_134451_EX1206_MB.all.mb58.gz 83.86MB Kongsberg multibeam vendor format
0299_20121119_142037_EX1206_MB.all.mb58.gz 59.57MB Kongsberg multibeam vendor format
0300_20121119_143901_EX1206_MB.all.mb58.gz 92.62MB Kongsberg multibeam vendor format
0301_20121119_152525_EX1206_MB.all.mb58.gz 26.93MB Kongsberg multibeam vendor format
0302_20121119_154148_EX1206_MB.all.mb58.gz 91.63MB Kongsberg multibeam vendor format
0303_20121119_163011_EX1206_MB.all.mb58.gz 28.15MB Kongsberg multibeam vendor format
0304_20121119_163946_EX1206_MB.all.mb58.gz 161.46MB Kongsberg multibeam vendor format
0305_20121119_174351_EX1206_MB.all.mb58.gz 39.35MB Kongsberg multibeam vendor format
0306_20121119_180151_EX1206_MB.all.mb58.gz 190.68MB Kongsberg multibeam vendor format
0307_20121119_190613_EX1206_MB.all.mb58.gz 462.91MB Kongsberg multibeam vendor format
0308_20121119_210613_EX1206_MB.all.mb58.gz 476.66MB Kongsberg multibeam vendor format
0309_20121119_230613_EX1206_MB.all.mb58.gz 205.19MB Kongsberg multibeam vendor format

Full Resolution Bathymetry (processed): 307

Files File Size Description
EX1206_EX03192012_2012-307_0001_20121102_201647_EX1206_MB.txt.mb162 56.41MB Generic XYZ sounding format
EX1206_EX03192012_2012-307_0002_20121102_211647_EX1206_MB.txt.mb162 52.15MB Generic XYZ sounding format
EX1206_EX03192012_2012-307_0003_20121102_221647_EX1206_MB.txt.mb162 52.18MB Generic XYZ sounding format
EX1206_EX03192012_2012-307_0004_20121102_231647_EX1206_MB.txt.mb162 44.06MB Generic XYZ sounding format
EX1206_EX03192012_2012-308_0005_20121103_000000_EX1206_MB.txt.mb162 54.95MB Generic XYZ sounding format
EX1206_EX03192012_2012-308_0006_20121103_010000_EX1206_MB.txt.mb162 48.47MB Generic XYZ sounding format
EX1206_EX03192012_2012-308_0007_20121103_020000_EX1206_MB.txt.mb162 46.23MB Generic XYZ sounding format
EX1206_EX03192012_2012-308_0008_20121103_030001_EX1206_MB.txt.mb162 43.95MB Generic XYZ sounding format
EX1206_EX03192012_2012-308_0009_20121103_040000_EX1206_MB.txt.mb162 47.89MB Generic XYZ sounding format
EX1206_EX03192012_2012-308_0010_20121103_050000_EX1206_MB.txt.mb162 46.55MB Generic XYZ sounding format
EX1206_EX03192012_2012-308_0011_20121103_060001_EX1206_MB.txt.mb162 27.49MB Generic XYZ sounding format
EX1206_EX03192012_2012-308_0012_20121103_070001_EX1206_MB.txt.mb162 12.53MB Generic XYZ sounding format
EX1206_EX03192012_2012-308_0013_20121103_074911_EX1206_MB.txt.mb162 16.50MB Generic XYZ sounding format
EX1206_EX03192012_2012-308_0014_20121103_084910_EX1206_MB.txt.mb162 17.95MB Generic XYZ sounding format
EX1206_EX03192012_2012-308_0015_20121103_094911_EX1206_MB.txt.mb162 13.34MB Generic XYZ sounding format
EX1206_EX03192012_2012-308_0016_20121103_104912_EX1206_MB.txt.mb162 14.47MB Generic XYZ sounding format
EX1206_EX03192012_2012-308_0017_20121103_114911_EX1206_MB.txt.mb162 22.24MB Generic XYZ sounding format
EX1206_EX03192012_2012-308_0018_20121103_124911_EX1206_MB.txt.mb162 17.40MB Generic XYZ sounding format
EX1206_EX03192012_2012-308_0019_20121103_134910_EX1206_MB.txt.mb162 4.79MB Generic XYZ sounding format
EX1206_EX03192012_2012-308_0020_20121103_140906_EX1206_MB.txt.mb162 11.30MB Generic XYZ sounding format
EX1206_EX03192012_2012-308_0021_20121103_150908_EX1206_MB.txt.mb162 10.80MB Generic XYZ sounding format
EX1206_EX03192012_2012-308_0022_20121103_160906_EX1206_MB.txt.mb162 17.05MB Generic XYZ sounding format
EX1206_EX03192012_2012-308_0023_20121103_170906_EX1206_MB.txt.mb162 28.03MB Generic XYZ sounding format
EX1206_EX03192012_2012-308_0024_20121103_180906_EX1206_MB.txt.mb162 30.12MB Generic XYZ sounding format
EX1206_EX03192012_2012-308_0025_20121103_190905_EX1206_MB.txt.mb162 28.37MB Generic XYZ sounding format
EX1206_EX03192012_2012-308_0026_20121103_200906_EX1206_MB.txt.mb162 36.66MB Generic XYZ sounding format
EX1206_EX03192012_2012-308_0027_20121103_210906_EX1206_MB.txt.mb162 22.69MB Generic XYZ sounding format
EX1206_EX03192012_2012-308_0028_20121103_220907_EX1206_MB.txt.mb162 12.19MB Generic XYZ sounding format
EX1206_EX03192012_2012-308_0029_20121103_230905_EX1206_MB.txt.mb162 22.83MB Generic XYZ sounding format
EX1206_EX03192012_2012-309_0030_20121104_000000_EX1206_MB.txt.mb162 19.40MB Generic XYZ sounding format
EX1206_EX03192012_2012-309_0031_20121104_010002_EX1206_MB.txt.mb162 17.54MB Generic XYZ sounding format
EX1206_EX03192012_2012-309_0032_20121104_020000_EX1206_MB.txt.mb162 18.03MB Generic XYZ sounding format
EX1206_EX03192012_2012-309_0033_20121104_030002_EX1206_MB.txt.mb162 14.43MB Generic XYZ sounding format
EX1206_EX03192012_2012-309_0034_20121104_040001_EX1206_MB.txt.mb162 21.61MB Generic XYZ sounding format
EX1206_EX03192012_2012-309_0035_20121104_050001_EX1206_MB.txt.mb162 21.09MB Generic XYZ sounding format
EX1206_EX03192012_2012-309_0036_20121104_060000_EX1206_MB.txt.mb162 14.82MB Generic XYZ sounding format
EX1206_EX03192012_2012-309_0037_20121104_070001_EX1206_MB.txt.mb162 15.44MB Generic XYZ sounding format
EX1206_EX03192012_2012-309_0038_20121104_080001_EX1206_MB.txt.mb162 14.47MB Generic XYZ sounding format
EX1206_EX03192012_2012-309_0039_20121104_090001_EX1206_MB.txt.mb162 18.34MB Generic XYZ sounding format
EX1206_EX03192012_2012-309_0040_20121104_100000_EX1206_MB.txt.mb162 19.31MB Generic XYZ sounding format
EX1206_EX03192012_2012-309_0041_20121104_110000_EX1206_MB.txt.mb162 19.64MB Generic XYZ sounding format
EX1206_EX03192012_2012-309_0042_20121104_120000_EX1206_MB.txt.mb162 37.51MB Generic XYZ sounding format
EX1206_EX03192012_2012-309_0043_20121104_130000_EX1206_MB.txt.mb162 34.63MB Generic XYZ sounding format
EX1206_EX03192012_2012-309_0044_20121104_135137_EX1206_MB.txt.mb162 5.87MB Generic XYZ sounding format
EX1206_EX03192012_2012-309_0045_20121104_140112_EX1206_MB.txt.mb162 21.25MB Generic XYZ sounding format
EX1206_EX03192012_2012-309_0046_20121104_150112_EX1206_MB.txt.mb162 16.15MB Generic XYZ sounding format
EX1206_EX03192012_2012-309_0047_20121104_154850_EX1206_MB.txt.mb162 4.02MB Generic XYZ sounding format
EX1206_EX03192012_2012-309_0048_20121104_155541_EX1206_MB.txt.mb162 25.45MB Generic XYZ sounding format
EX1206_EX03192012_2012-309_0049_20121104_165545_EX1206_MB.txt.mb162 20.61MB Generic XYZ sounding format
EX1206_EX03192012_2012-309_0050_20121104_173859_EX1206_MB.txt.mb162 5.76MB Generic XYZ sounding format
EX1206_EX03192012_2012-309_0051_20121104_175305_EX1206_MB.txt.mb162 11.95MB Generic XYZ sounding format
EX1206_EX03192012_2012-309_0052_20121104_185303_EX1206_MB.txt.mb162 13.32MB Generic XYZ sounding format
EX1206_EX03192012_2012-309_0053_20121104_205303_EX1206_MB.txt.mb162 4.42MB Generic XYZ sounding format
EX1206_EX03192012_2012-309_0054_20121104_213401_EX1206_MB.txt.mb162 2.12MB Generic XYZ sounding format
EX1206_EX03192012_2012-309_0055_20121104_215429_EX1206_MB.txt.mb162 13.23MB Generic XYZ sounding format
EX1206_EX03192012_2012-309_0056_20121104_235430_EX1206_MB.txt.mb162 490.0KB Generic XYZ sounding format
EX1206_EX03192012_2012-309_0057_20121104_235832_EX1206_MB.txt.mb162 173.5KB Generic XYZ sounding format
EX1206_EX03192012_2012-310_0058_20121105_000003_EX1206_MB.txt.mb162 31.39MB Generic XYZ sounding format
EX1206_EX03192012_2012-310_0059_20121105_020001_EX1206_MB.txt.mb162 26.46MB Generic XYZ sounding format
EX1206_EX03192012_2012-310_0060_20121105_040001_EX1206_MB.txt.mb162 9.03MB Generic XYZ sounding format
EX1206_EX03192012_2012-310_0061_20121105_052727_EX1206_MB.txt.mb162 304.1KB Generic XYZ sounding format
EX1206_EX03192012_2012-310_0062_20121105_053430_EX1206_MB.txt.mb162 8.65MB Generic XYZ sounding format
EX1206_EX03192012_2012-310_0063_20121105_073428_EX1206_MB.txt.mb162 9.81MB Generic XYZ sounding format
EX1206_EX03192012_2012-310_0064_20121105_093431_EX1206_MB.txt.mb162 6.12MB Generic XYZ sounding format
EX1206_EX03192012_2012-310_0065_20121105_113430_EX1206_MB.txt.mb162 5.24MB Generic XYZ sounding format
EX1206_EX03192012_2012-310_0066_20121105_133432_EX1206_MB.txt.mb162 5.35MB Generic XYZ sounding format
EX1206_EX03192012_2012-310_0067_20121105_153426_EX1206_MB.txt.mb162 5.94MB Generic XYZ sounding format
EX1206_EX03192012_2012-310_0068_20121105_173432_EX1206_MB.txt.mb162 9.25MB Generic XYZ sounding format
EX1206_EX03192012_2012-310_0069_20121105_193433_EX1206_MB.txt.mb162 6.06MB Generic XYZ sounding format
EX1206_EX03192012_2012-310_0070_20121105_205045_EX1206_MB.txt.mb162 1.89MB Generic XYZ sounding format
EX1206_EX03192012_2012-310_0071_20121105_211536_EX1206_MB.txt.mb162 9.31MB Generic XYZ sounding format
EX1206_EX03192012_2012-310_0072_20121105_231536_EX1206_MB.txt.mb162 3.36MB Generic XYZ sounding format
EX1206_EX03192012_2012-311_0073_20121106_000004_EX1206_MB.txt.mb162 8.82MB Generic XYZ sounding format
EX1206_EX03192012_2012-311_0074_20121106_020005_EX1206_MB.txt.mb162 8.75MB Generic XYZ sounding format
EX1206_EX03192012_2012-311_0075_20121106_040005_EX1206_MB.txt.mb162 7.41MB Generic XYZ sounding format
EX1206_EX03192012_2012-311_0076_20121106_060002_EX1206_MB.txt.mb162 8.60MB Generic XYZ sounding format
EX1206_EX03192012_2012-311_0077_20121106_080003_EX1206_MB.txt.mb162 8.95MB Generic XYZ sounding format
EX1206_EX03192012_2012-311_0078_20121106_100007_EX1206_MB.txt.mb162 3.45MB Generic XYZ sounding format
EX1206_EX03192012_2012-311_0079_20121106_113549_EX1206_MB.txt.mb162 8.95MB Generic XYZ sounding format
EX1206_EX03192012_2012-311_0080_20121106_133544_EX1206_MB.txt.mb162 8.87MB Generic XYZ sounding format
EX1206_EX03192012_2012-311_0081_20121106_153547_EX1206_MB.txt.mb162 8.70MB Generic XYZ sounding format
EX1206_EX03192012_2012-311_0082_20121106_173545_EX1206_MB.txt.mb162 5.65MB Generic XYZ sounding format
EX1206_EX03192012_2012-311_0083_20121106_185541_EX1206_MB.txt.mb162 9.16MB Generic XYZ sounding format
EX1206_EX03192012_2012-311_0084_20121106_205537_EX1206_MB.txt.mb162 59.26MB Generic XYZ sounding format
EX1206_EX03192012_2012-311_0085_20121106_225536_EX1206_MB.txt.mb162 71.23MB Generic XYZ sounding format
EX1206_EX03192012_2012-314_0086_20121109_204811_EX1206_MB.txt.mb162 48.41MB Generic XYZ sounding format
EX1206_EX03192012_2012-314_0087_20121109_224812_EX1206_MB.txt.mb162 4.37MB Generic XYZ sounding format
EX1206_EX03192012_2012-314_0088_20121109_234658_EX1206_MB.txt.mb162 0.51MB Generic XYZ sounding format
EX1206_EX03192012_2012-314_0089_20121109_235333_EX1206_MB.txt.mb162 0.51MB Generic XYZ sounding format
EX1206_EX03192012_2012-315_0090_20121110_000024_EX1206_MB.txt.mb162 8.81MB Generic XYZ sounding format
EX1206_EX03192012_2012-315_0091_20121110_020028_EX1206_MB.txt.mb162 9.08MB Generic XYZ sounding format
EX1206_EX03192012_2012-315_0092_20121110_040023_EX1206_MB.txt.mb162 9.29MB Generic XYZ sounding format
EX1206_EX03192012_2012-315_0093_20121110_060026_EX1206_MB.txt.mb162 3.44MB Generic XYZ sounding format
EX1206_EX03192012_2012-315_0094_20121110_064501_EX1206_MB.txt.mb162 2.23MB Generic XYZ sounding format
EX1206_EX03192012_2012-315_0095_20121110_071350_EX1206_MB.txt.mb162 9.72MB Generic XYZ sounding format
EX1206_EX03192012_2012-315_0096_20121110_091348_EX1206_MB.txt.mb162 9.25MB Generic XYZ sounding format
EX1206_EX03192012_2012-315_0097_20121110_111349_EX1206_MB.txt.mb162 9.12MB Generic XYZ sounding format
EX1206_EX03192012_2012-315_0098_20121110_131346_EX1206_MB.txt.mb162 6.73MB Generic XYZ sounding format
EX1206_EX03192012_2012-315_0099_20121110_144318_EX1206_MB.txt.mb162 8.84MB Generic XYZ sounding format
EX1206_EX03192012_2012-315_0100_20121110_164316_EX1206_MB.txt.mb162 9.03MB Generic XYZ sounding format
EX1206_EX03192012_2012-315_0101_20121110_184318_EX1206_MB.txt.mb162 9.56MB Generic XYZ sounding format
EX1206_EX03192012_2012-315_0102_20121110_204319_EX1206_MB.txt.mb162 2.37MB Generic XYZ sounding format
EX1206_EX03192012_2012-315_0103_20121110_211238_EX1206_MB.txt.mb162 1.92MB Generic XYZ sounding format
EX1206_EX03192012_2012-315_0104_20121110_213612_EX1206_MB.txt.mb162 9.75MB Generic XYZ sounding format
EX1206_EX03192012_2012-315_0105_20121110_233609_EX1206_MB.txt.mb162 1.99MB Generic XYZ sounding format
EX1206_EX03192012_2012-316_0106_20121111_000135_EX1206_MB.txt.mb162 9.02MB Generic XYZ sounding format
EX1206_EX03192012_2012-316_0107_20121111_020133_EX1206_MB.txt.mb162 8.75MB Generic XYZ sounding format
EX1206_EX03192012_2012-316_0108_20121111_040130_EX1206_MB.txt.mb162 0.84MB Generic XYZ sounding format
EX1206_EX03192012_2012-316_0109_20121111_041249_EX1206_MB.txt.mb162 1.55MB Generic XYZ sounding format
EX1206_EX03192012_2012-316_0110_20121111_043323_EX1206_MB.txt.mb162 8.86MB Generic XYZ sounding format
EX1206_EX03192012_2012-316_0111_20121111_063319_EX1206_MB.txt.mb162 8.95MB Generic XYZ sounding format
EX1206_EX03192012_2012-316_0112_20121111_083317_EX1206_MB.txt.mb162 9.74MB Generic XYZ sounding format
EX1206_EX03192012_2012-316_0113_20121111_103319_EX1206_MB.txt.mb162 6.08MB Generic XYZ sounding format
EX1206_EX03192012_2012-316_0114_20121111_114223_EX1206_MB.txt.mb162 2.00MB Generic XYZ sounding format
EX1206_EX03192012_2012-316_0115_20121111_120537_EX1206_MB.txt.mb162 10.39MB Generic XYZ sounding format
EX1206_EX03192012_2012-316_0116_20121111_140538_EX1206_MB.txt.mb162 9.30MB Generic XYZ sounding format
EX1206_EX03192012_2012-316_0117_20121111_160541_EX1206_MB.txt.mb162 9.00MB Generic XYZ sounding format
EX1206_EX03192012_2012-316_0118_20121111_180538_EX1206_MB.txt.mb162 9.17MB Generic XYZ sounding format
EX1206_EX03192012_2012-316_0119_20121111_200538_EX1206_MB.txt.mb162 9.08MB Generic XYZ sounding format
EX1206_EX03192012_2012-316_0120_20121111_220538_EX1206_MB.txt.mb162 1.74MB Generic XYZ sounding format
EX1206_EX03192012_2012-316_0121_20121111_222723_EX1206_MB.txt.mb162 1.42MB Generic XYZ sounding format
EX1206_EX03192012_2012-316_0122_20121111_224527_EX1206_MB.txt.mb162 4.65MB Generic XYZ sounding format
EX1206_EX03192012_2012-316_0123_20121111_234347_EX1206_MB.txt.mb162 1.31MB Generic XYZ sounding format
EX1206_EX03192012_2012-317_0124_20121112_000005_EX1206_MB.txt.mb162 9.70MB Generic XYZ sounding format
EX1206_EX03192012_2012-317_0125_20121112_020005_EX1206_MB.txt.mb162 10.38MB Generic XYZ sounding format
EX1206_EX03192012_2012-317_0126_20121112_040005_EX1206_MB.txt.mb162 2.13MB Generic XYZ sounding format
EX1206_EX03192012_2012-317_0127_20121112_042429_EX1206_MB.txt.mb162 10.89MB Generic XYZ sounding format
EX1206_EX03192012_2012-317_0128_20121112_062429_EX1206_MB.txt.mb162 9.89MB Generic XYZ sounding format
EX1206_EX03192012_2012-317_0129_20121112_082429_EX1206_MB.txt.mb162 9.27MB Generic XYZ sounding format
EX1206_EX03192012_2012-317_0130_20121112_102432_EX1206_MB.txt.mb162 9.34MB Generic XYZ sounding format
EX1206_EX03192012_2012-317_0131_20121112_122431_EX1206_MB.txt.mb162 9.16MB Generic XYZ sounding format
EX1206_EX03192012_2012-317_0132_20121112_142429_EX1206_MB.txt.mb162 9.78MB Generic XYZ sounding format
EX1206_EX03192012_2012-317_0133_20121112_162430_EX1206_MB.txt.mb162 9.42MB Generic XYZ sounding format
EX1206_EX03192012_2012-317_0134_20121112_180350_EX1206_MB.txt.mb162 1.09MB Generic XYZ sounding format
EX1206_EX03192012_2012-317_0135_20121112_181502_EX1206_MB.txt.mb162 3.34MB Generic XYZ sounding format
EX1206_EX03192012_2012-317_0136_20121112_184740_EX1206_MB.txt.mb162 2.15MB Generic XYZ sounding format
EX1206_EX03192012_2012-317_0137_20121112_191026_EX1206_MB.txt.mb162 3.42MB Generic XYZ sounding format
EX1206_EX03192012_2012-317_0138_20121112_194520_EX1206_MB.txt.mb162 1.61MB Generic XYZ sounding format
EX1206_EX03192012_2012-317_0139_20121112_200252_EX1206_MB.txt.mb162 1.32MB Generic XYZ sounding format
EX1206_EX03192012_2012-317_0140_20121112_201714_EX1206_MB.txt.mb162 0.54MB Generic XYZ sounding format
EX1206_EX03192012_2012-317_0141_20121112_202307_EX1206_MB.txt.mb162 2.24MB Generic XYZ sounding format
EX1206_EX03192012_2012-317_0142_20121112_205023_EX1206_MB.txt.mb162 9.89MB Generic XYZ sounding format
EX1206_EX03192012_2012-317_0143_20121112_225028_EX1206_MB.txt.mb162 5.53MB Generic XYZ sounding format
EX1206_EX03192012_2012-318_0144_20121113_000218_EX1206_MB.txt.mb162 9.22MB Generic XYZ sounding format
EX1206_EX03192012_2012-318_0145_20121113_020205_EX1206_MB.txt.mb162 9.42MB Generic XYZ sounding format
EX1206_EX03192012_2012-318_0146_20121113_040202_EX1206_MB.txt.mb162 1.75MB Generic XYZ sounding format
EX1206_EX03192012_2012-318_0147_20121113_042434_EX1206_MB.txt.mb162 1.81MB Generic XYZ sounding format
EX1206_EX03192012_2012-318_0148_20121113_044742_EX1206_MB.txt.mb162 9.65MB Generic XYZ sounding format
EX1206_EX03192012_2012-318_0149_20121113_064739_EX1206_MB.txt.mb162 9.81MB Generic XYZ sounding format
EX1206_EX03192012_2012-318_0150_20121113_084743_EX1206_MB.txt.mb162 9.49MB Generic XYZ sounding format
EX1206_EX03192012_2012-318_0151_20121113_104742_EX1206_MB.txt.mb162 9.16MB Generic XYZ sounding format
EX1206_EX03192012_2012-318_0152_20121113_123512_EX1206_MB.txt.mb162 0.73MB Generic XYZ sounding format
EX1206_EX03192012_2012-318_0153_20121113_132350_EX1206_MB.txt.mb162 10.44MB Generic XYZ sounding format
EX1206_EX03192012_2012-318_0154_20121113_152351_EX1206_MB.txt.mb162 9.60MB Generic XYZ sounding format
EX1206_EX03192012_2012-318_0155_20121113_172349_EX1206_MB.txt.mb162 10.17MB Generic XYZ sounding format
EX1206_EX03192012_2012-318_0156_20121113_192353_EX1206_MB.txt.mb162 5.57MB Generic XYZ sounding format
EX1206_EX03192012_2012-318_0157_20121113_203811_EX1206_MB.txt.mb162 10.23MB Generic XYZ sounding format
EX1206_EX03192012_2012-318_0158_20121113_223810_EX1206_MB.txt.mb162 5.00MB Generic XYZ sounding format
EX1206_EX03192012_2012-318_0159_20121113_233330_EX1206_MB.txt.mb162 1.14MB Generic XYZ sounding format
EX1206_EX03192012_2012-319_0160_20121114_000005_EX1206_MB.txt.mb162 9.30MB Generic XYZ sounding format
EX1206_EX03192012_2012-319_0161_20121114_020005_EX1206_MB.txt.mb162 5.20MB Generic XYZ sounding format
EX1206_EX03192012_2012-319_0162_20121114_030832_EX1206_MB.txt.mb162 9.20MB Generic XYZ sounding format
EX1206_EX03192012_2012-319_0163_20121114_050833_EX1206_MB.txt.mb162 11.58MB Generic XYZ sounding format
EX1206_EX03192012_2012-319_0164_20121114_070837_EX1206_MB.txt.mb162 9.10MB Generic XYZ sounding format
EX1206_EX03192012_2012-319_0165_20121114_090251_EX1206_MB.txt.mb162 0.86MB Generic XYZ sounding format
EX1206_EX03192012_2012-319_0166_20121114_091345_EX1206_MB.txt.mb162 1.34MB Generic XYZ sounding format
EX1206_EX03192012_2012-319_0167_20121114_092922_EX1206_MB.txt.mb162 0.97MB Generic XYZ sounding format
EX1206_EX03192012_2012-319_0168_20121114_094211_EX1206_MB.txt.mb162 6.85MB Generic XYZ sounding format
EX1206_EX03192012_2012-319_0169_20121114_114223_EX1206_MB.txt.mb162 1.85MB Generic XYZ sounding format
EX1206_EX03192012_2012-319_0170_20121114_121557_EX1206_MB.txt.mb162 5.39MB Generic XYZ sounding format
EX1206_EX03192012_2012-319_0171_20121114_141604_EX1206_MB.txt.mb162 4.81MB Generic XYZ sounding format
EX1206_EX03192012_2012-319_0172_20121114_161602_EX1206_MB.txt.mb162 3.40MB Generic XYZ sounding format
EX1206_EX03192012_2012-319_0173_20121114_181602_EX1206_MB.txt.mb162 2.34MB Generic XYZ sounding format
EX1206_EX03192012_2012-319_0174_20121114_193952_EX1206_MB.txt.mb162 0.82MB Generic XYZ sounding format
EX1206_EX03192012_2012-319_0175_20121114_195449_EX1206_MB.txt.mb162 7.56MB Generic XYZ sounding format
EX1206_EX03192012_2012-319_0176_20121114_213524_EX1206_MB.txt.mb162 2.77MB Generic XYZ sounding format
EX1206_EX03192012_2012-319_0178_20121114_221659_EX1206_MB.txt.mb162 6.29MB Generic XYZ sounding format
EX1206_EX03192012_2012-320_0179_20121115_000651_EX1206_MB.txt.mb162 3.79MB Generic XYZ sounding format
EX1206_EX03192012_2012-320_0180_20121115_011427_EX1206_MB.txt.mb162 3.84MB Generic XYZ sounding format
EX1206_EX03192012_2012-320_0181_20121115_031418_EX1206_MB.txt.mb162 4.91MB Generic XYZ sounding format
EX1206_EX03192012_2012-320_0182_20121115_051420_EX1206_MB.txt.mb162 7.52MB Generic XYZ sounding format
EX1206_EX03192012_2012-320_0183_20121115_071418_EX1206_MB.txt.mb162 6.20MB Generic XYZ sounding format
EX1206_EX03192012_2012-320_0184_20121115_091418_EX1206_MB.txt.mb162 3.96MB Generic XYZ sounding format
EX1206_EX03192012_2012-320_0185_20121115_111416_EX1206_MB.txt.mb162 3.50MB Generic XYZ sounding format
EX1206_EX03192012_2012-320_0186_20121115_131416_EX1206_MB.txt.mb162 3.50MB Generic XYZ sounding format
EX1206_EX03192012_2012-320_0187_20121115_151417_EX1206_MB.txt.mb162 2.88MB Generic XYZ sounding format
EX1206_EX03192012_2012-320_0188_20121115_171418_EX1206_MB.txt.mb162 4.08MB Generic XYZ sounding format
EX1206_EX03192012_2012-320_0189_20121115_191419_EX1206_MB.txt.mb162 4.26MB Generic XYZ sounding format
EX1206_EX03192012_2012-320_0190_20121115_211420_EX1206_MB.txt.mb162 4.60MB Generic XYZ sounding format
EX1206_EX03192012_2012-320_0191_20121115_231450_EX1206_MB.txt.mb162 2.08MB Generic XYZ sounding format
EX1206_EX03192012_2012-321_0192_20121116_000005_EX1206_MB.txt.mb162 4.13MB Generic XYZ sounding format
EX1206_EX03192012_2012-321_0193_20121116_012639_EX1206_MB.txt.mb162 0.51MB Generic XYZ sounding format
EX1206_EX03192012_2012-321_0194_20121116_014502_EX1206_MB.txt.mb162 6.06MB Generic XYZ sounding format
EX1206_EX03192012_2012-321_0195_20121116_034503_EX1206_MB.txt.mb162 3.34MB Generic XYZ sounding format
EX1206_EX03192012_2012-321_0196_20121116_043829_EX1206_MB.txt.mb162 7.17MB Generic XYZ sounding format
EX1206_EX03192012_2012-321_0197_20121116_063829_EX1206_MB.txt.mb162 1.82MB Generic XYZ sounding format
EX1206_EX03192012_2012-321_0198_20121116_071211_EX1206_MB.txt.mb162 0.96MB Generic XYZ sounding format
EX1206_EX03192012_2012-321_0199_20121116_073018_EX1206_MB.txt.mb162 10.21MB Generic XYZ sounding format
EX1206_EX03192012_2012-321_0200_20121116_093016_EX1206_MB.txt.mb162 1.36MB Generic XYZ sounding format
EX1206_EX03192012_2012-321_0201_20121116_094524_EX1206_MB.txt.mb162 2.27MB Generic XYZ sounding format
EX1206_EX03192012_2012-321_0202_20121116_101006_EX1206_MB.txt.mb162 11.64MB Generic XYZ sounding format
EX1206_EX03192012_2012-321_0203_20121116_121008_EX1206_MB.txt.mb162 4.28MB Generic XYZ sounding format
EX1206_EX03192012_2012-321_0204_20121116_125525_EX1206_MB.txt.mb162 1.26MB Generic XYZ sounding format
EX1206_EX03192012_2012-321_0205_20121116_130904_EX1206_MB.txt.mb162 12.92MB Generic XYZ sounding format
EX1206_EX03192012_2012-321_0206_20121116_150904_EX1206_MB.txt.mb162 2.69MB Generic XYZ sounding format
EX1206_EX03192012_2012-321_0207_20121116_153510_EX1206_MB.txt.mb162 14.48MB Generic XYZ sounding format
EX1206_EX03192012_2012-321_0208_20121116_173506_EX1206_MB.txt.mb162 5.35MB Generic XYZ sounding format
EX1206_EX03192012_2012-321_0209_20121116_181306_EX1206_MB.txt.mb162 2.35MB Generic XYZ sounding format
EX1206_EX03192012_2012-321_0210_20121116_182728_EX1206_MB.txt.mb162 18.76MB Generic XYZ sounding format
EX1206_EX03192012_2012-321_0211_20121116_202731_EX1206_MB.txt.mb162 4.56MB Generic XYZ sounding format
EX1206_EX03192012_2012-321_0212_20121116_210205_EX1206_MB.txt.mb162 21.50MB Generic XYZ sounding format
EX1206_EX03192012_2012-321_0213_20121116_230204_EX1206_MB.txt.mb162 9.03MB Generic XYZ sounding format
EX1206_EX03192012_2012-321_0214_20121116_234104_EX1206_MB.txt.mb162 3.35MB Generic XYZ sounding format
EX1206_EX03192012_2012-321_0215_20121116_235536_EX1206_MB.txt.mb162 1.06MB Generic XYZ sounding format
EX1206_EX03192012_2012-322_0216_20121117_000001_EX1206_MB.txt.mb162 26.33MB Generic XYZ sounding format
EX1206_EX03192012_2012-322_0217_20121117_020002_EX1206_MB.txt.mb162 3.18MB Generic XYZ sounding format
EX1206_EX03192012_2012-322_0218_20121117_021643_EX1206_MB.txt.mb162 2.36MB Generic XYZ sounding format
EX1206_EX03192012_2012-322_0219_20121117_022709_EX1206_MB.txt.mb162 28.64MB Generic XYZ sounding format
EX1206_EX03192012_2012-322_0220_20121117_042709_EX1206_MB.txt.mb162 14.94MB Generic XYZ sounding format
EX1206_EX03192012_2012-322_0221_20121117_051635_EX1206_MB.txt.mb162 3.35MB Generic XYZ sounding format
EX1206_EX03192012_2012-322_0222_20121117_052720_EX1206_MB.txt.mb162 37.21MB Generic XYZ sounding format
EX1206_EX03192012_2012-322_0223_20121117_072721_EX1206_MB.txt.mb162 10.10MB Generic XYZ sounding format
EX1206_EX03192012_2012-322_0224_20121117_080749_EX1206_MB.txt.mb162 2.48MB Generic XYZ sounding format
EX1206_EX03192012_2012-322_0225_20121117_081721_EX1206_MB.txt.mb162 28.10MB Generic XYZ sounding format
EX1206_EX03192012_2012-322_0226_20121117_095054_EX1206_MB.txt.mb162 3.78MB Generic XYZ sounding format
EX1206_EX03192012_2012-322_0227_20121117_095924_EX1206_MB.txt.mb162 5.93MB Generic XYZ sounding format
EX1206_EX03192012_2012-322_0228_20121117_101327_EX1206_MB.txt.mb162 29.65MB Generic XYZ sounding format
EX1206_EX03192012_2012-322_0229_20121117_114854_EX1206_MB.txt.mb162 2.46MB Generic XYZ sounding format
EX1206_EX03192012_2012-322_0230_20121117_120057_EX1206_MB.txt.mb162 24.76MB Generic XYZ sounding format
EX1206_EX03192012_2012-322_0231_20121117_131834_EX1206_MB.txt.mb162 5.93MB Generic XYZ sounding format
EX1206_EX03192012_2012-322_0232_20121117_133030_EX1206_MB.txt.mb162 18.68MB Generic XYZ sounding format
EX1206_EX03192012_2012-322_0233_20121117_142352_EX1206_MB.txt.mb162 0.82MB Generic XYZ sounding format
EX1206_EX03192012_2012-322_0234_20121117_142800_EX1206_MB.txt.mb162 4.14MB Generic XYZ sounding format
EX1206_EX03192012_2012-322_0235_20121117_144534_EX1206_MB.txt.mb162 8.90MB Generic XYZ sounding format
EX1206_EX03192012_2012-322_0236_20121117_151140_EX1206_MB.txt.mb162 4.17MB Generic XYZ sounding format
EX1206_EX03192012_2012-322_0237_20121117_152310_EX1206_MB.txt.mb162 1.10MB Generic XYZ sounding format
EX1206_EX03192012_2012-322_0238_20121117_152545_EX1206_MB.txt.mb162 11.03MB Generic XYZ sounding format
EX1206_EX03192012_2012-322_0239_20121117_155656_EX1206_MB.txt.mb162 2.66MB Generic XYZ sounding format
EX1206_EX03192012_2012-322_0240_20121117_160509_EX1206_MB.txt.mb162 27.35MB Generic XYZ sounding format
EX1206_EX03192012_2012-322_0241_20121117_171551_EX1206_MB.txt.mb162 50.69MB Generic XYZ sounding format
EX1206_EX03192012_2012-322_0242_20121117_191318_EX1206_MB.txt.mb162 28.04MB Generic XYZ sounding format
EX1206_EX03192012_2012-322_0243_20121117_200523_EX1206_MB.txt.mb162 5.19MB Generic XYZ sounding format
EX1206_EX03192012_2012-322_0244_20121117_201400_EX1206_MB.txt.mb162 8.41MB Generic XYZ sounding format
EX1206_EX03192012_2012-322_0245_20121117_204452_EX1206_MB.txt.mb162 3.63MB Generic XYZ sounding format
EX1206_EX03192012_2012-322_0246_20121117_211132_EX1206_MB.txt.mb162 15.85MB Generic XYZ sounding format
EX1206_EX03192012_2012-322_0247_20121117_220925_EX1206_MB.txt.mb162 21.50MB Generic XYZ sounding format
EX1206_EX03192012_2012-322_0248_20121117_231430_EX1206_MB.txt.mb162 1.82MB Generic XYZ sounding format
EX1206_EX03192012_2012-322_0249_20121117_232745_EX1206_MB.txt.mb162 3.31MB Generic XYZ sounding format
EX1206_EX03192012_2012-323_0250_20121118_000006_EX1206_MB.txt.mb162 3.35MB Generic XYZ sounding format
EX1206_EX03192012_2012-323_0251_20121118_003903_EX1206_MB.txt.mb162 2.54MB Generic XYZ sounding format
EX1206_EX03192012_2012-323_0252_20121118_011301_EX1206_MB.txt.mb162 5.20MB Generic XYZ sounding format
EX1206_EX03192012_2012-323_0253_20121118_031304_EX1206_MB.txt.mb162 6.34MB Generic XYZ sounding format
EX1206_EX03192012_2012-323_0254_20121118_051301_EX1206_MB.txt.mb162 1.93MB Generic XYZ sounding format
EX1206_EX03192012_2012-323_0255_20121118_054511_EX1206_MB.txt.mb162 9.62MB Generic XYZ sounding format
EX1206_EX03192012_2012-323_0256_20121118_074510_EX1206_MB.txt.mb162 8.27MB Generic XYZ sounding format
EX1206_EX03192012_2012-323_0257_20121118_092817_EX1206_MB.txt.mb162 1.56MB Generic XYZ sounding format
EX1206_EX03192012_2012-323_0258_20121118_095031_EX1206_MB.txt.mb162 6.62MB Generic XYZ sounding format
EX1206_EX03192012_2012-323_0259_20121118_115033_EX1206_MB.txt.mb162 5.02MB Generic XYZ sounding format
EX1206_EX03192012_2012-323_0260_20121118_131445_EX1206_MB.txt.mb162 1.59MB Generic XYZ sounding format
EX1206_EX03192012_2012-323_0261_20121118_133515_EX1206_MB.txt.mb162 8.86MB Generic XYZ sounding format
EX1206_EX03192012_2012-323_0262_20121118_153514_EX1206_MB.txt.mb162 8.05MB Generic XYZ sounding format
EX1206_EX03192012_2012-323_0263_20121118_172140_EX1206_MB.txt.mb162 1.27MB Generic XYZ sounding format
EX1206_EX03192012_2012-323_0264_20121118_173916_EX1206_MB.txt.mb162 3.33MB Generic XYZ sounding format
EX1206_EX03192012_2012-323_0265_20121118_182039_EX1206_MB.txt.mb162 0.75MB Generic XYZ sounding format
EX1206_EX03192012_2012-323_0266_20121118_183113_EX1206_MB.txt.mb162 0.99MB Generic XYZ sounding format
EX1206_EX03192012_2012-323_0267_20121118_185135_EX1206_MB.txt.mb162 1.13MB Generic XYZ sounding format
EX1206_EX03192012_2012-323_0268_20121118_190719_EX1206_MB.txt.mb162 1.46MB Generic XYZ sounding format
EX1206_EX03192012_2012-323_0269_20121118_192505_EX1206_MB.txt.mb162 14.78MB Generic XYZ sounding format
EX1206_EX03192012_2012-323_0270_20121118_211114_EX1206_MB.txt.mb162 2.32MB Generic XYZ sounding format
EX1206_EX03192012_2012-323_0271_20121118_212330_EX1206_MB.txt.mb162 9.83MB Generic XYZ sounding format
EX1206_EX03192012_2012-323_0272_20121118_220512_EX1206_MB.txt.mb162 3.07MB Generic XYZ sounding format
EX1206_EX03192012_2012-323_0274_20121118_221557_EX1206_MB.txt.mb162 11.17MB Generic XYZ sounding format
EX1206_EX03192012_2012-323_0275_20121118_230923_EX1206_MB.txt.mb162 1.42MB Generic XYZ sounding format
EX1206_EX03192012_2012-323_0276_20121118_232229_EX1206_MB.txt.mb162 6.59MB Generic XYZ sounding format
EX1206_EX03192012_2012-324_0277_20121119_000002_EX1206_MB.txt.mb162 1.99MB Generic XYZ sounding format
EX1206_EX03192012_2012-324_0278_20121119_000837_EX1206_MB.txt.mb162 2.63MB Generic XYZ sounding format
EX1206_EX03192012_2012-324_0279_20121119_001631_EX1206_MB.txt.mb162 8.64MB Generic XYZ sounding format
EX1206_EX03192012_2012-324_0280_20121119_010237_EX1206_MB.txt.mb162 1.15MB Generic XYZ sounding format
EX1206_EX03192012_2012-324_0281_20121119_011304_EX1206_MB.txt.mb162 0.74MB Generic XYZ sounding format
EX1206_EX03192012_2012-324_0282_20121119_012215_EX1206_MB.txt.mb162 1.13MB Generic XYZ sounding format
EX1206_EX03192012_2012-324_0283_20121119_013707_EX1206_MB.txt.mb162 18.31MB Generic XYZ sounding format
EX1206_EX03192012_2012-324_0284_20121119_033708_EX1206_MB.txt.mb162 6.31MB Generic XYZ sounding format
EX1206_EX03192012_2012-324_0285_20121119_040854_EX1206_MB.txt.mb162 2.67MB Generic XYZ sounding format
EX1206_EX03192012_2012-324_0286_20121119_041943_EX1206_MB.txt.mb162 10.67MB Generic XYZ sounding format
EX1206_EX03192012_2012-324_0287_20121119_061943_EX1206_MB.txt.mb162 3.24MB Generic XYZ sounding format
EX1206_EX03192012_2012-324_0288_20121119_065806_EX1206_MB.txt.mb162 1.43MB Generic XYZ sounding format
EX1206_EX03192012_2012-324_0289_20121119_071353_EX1206_MB.txt.mb162 13.53MB Generic XYZ sounding format
EX1206_EX03192012_2012-324_0290_20121119_091351_EX1206_MB.txt.mb162 3.45MB Generic XYZ sounding format
EX1206_EX03192012_2012-324_0291_20121119_093728_EX1206_MB.txt.mb162 0.82MB Generic XYZ sounding format
EX1206_EX03192012_2012-324_0292_20121119_094400_EX1206_MB.txt.mb162 2.24MB Generic XYZ sounding format
EX1206_EX03192012_2012-324_0293_20121119_101819_EX1206_MB.txt.mb162 2.95MB Generic XYZ sounding format
EX1206_EX03192012_2012-324_0294_20121119_104743_EX1206_MB.txt.mb162 7.06MB Generic XYZ sounding format
EX1206_EX03192012_2012-324_0295_20121119_115123_EX1206_MB.txt.mb162 6.68MB Generic XYZ sounding format
EX1206_EX03192012_2012-324_0296_20121119_123358_EX1206_MB.txt.mb162 1.21MB Generic XYZ sounding format
EX1206_EX03192012_2012-324_0297_20121119_123743_EX1206_MB.txt.mb162 26.85MB Generic XYZ sounding format
EX1206_EX03192012_2012-324_0298_20121119_134451_EX1206_MB.txt.mb162 11.51MB Generic XYZ sounding format
EX1206_EX03192012_2012-324_0299_20121119_142037_EX1206_MB.txt.mb162 10.10MB Generic XYZ sounding format
EX1206_EX03192012_2012-324_0300_20121119_143901_EX1206_MB.txt.mb162 11.84MB Generic XYZ sounding format
EX1206_EX03192012_2012-324_0301_20121119_152525_EX1206_MB.txt.mb162 2.66MB Generic XYZ sounding format
EX1206_EX03192012_2012-324_0302_20121119_154148_EX1206_MB.txt.mb162 11.58MB Generic XYZ sounding format
EX1206_EX03192012_2012-324_0303_20121119_163011_EX1206_MB.txt.mb162 4.94MB Generic XYZ sounding format
EX1206_EX03192012_2012-324_0304_20121119_163946_EX1206_MB.txt.mb162 26.19MB Generic XYZ sounding format
EX1206_EX03192012_2012-324_0305_20121119_174351_EX1206_MB.txt.mb162 5.50MB Generic XYZ sounding format
EX1206_EX03192012_2012-324_0306_20121119_180151_EX1206_MB.txt.mb162 33.61MB Generic XYZ sounding format
EX1206_EX03192012_2012-324_0307_20121119_190613_EX1206_MB.txt.mb162 88.90MB Generic XYZ sounding format
EX1206_EX03192012_2012-324_0308_20121119_210613_EX1206_MB.txt.mb162 91.33MB Generic XYZ sounding format
EX1206_EX03192012_2012-324_0309_20121119_230613_EX1206_MB.txt.mb162 38.76MB Generic XYZ sounding format

Products: 16

Files File Size Description
EX1206_MB_FNL_100m_WGS84.asc.gz 6.21MB ESRI Arc ASCII
EX1206_MB_FNL_100m_WGS84.kmz.gz 1.03MB Compressed Keyhole Markup Language file
EX1206_MB_FNL_100m_WGS84.sd.gz 7.39MB Fledermaus surface
EX1206_MB_FNL_100m_WGS84.tif.gz 1.03MB GeoTIFF survey image
EX1206_MB_FNL_100m_WGS84.txt.gz 18.83MB ASCII text product
EX1206_MB_FNL_MidAtlantic_Survey_50m_WGS84.asc.gz 11.68MB ESRI Arc ASCII
EX1206_MB_FNL_MidAtlantic_Survey_50m_WGS84.kmz.gz 3.68MB Compressed Keyhole Markup Language file
EX1206_MB_FNL_MidAtlantic_Survey_50m_WGS84.sd.gz 16.03MB Fledermaus surface
EX1206_MB_FNL_MidAtlantic_Survey_50m_WGS84.tif.gz 3.67MB GeoTIFF survey image
EX1206_MB_FNL_MidAtlantic_Survey_50m_WGS84.txt.gz 46.60MB ASCII text product
EX1206_MB_FNL_NewEngland_Survey_50m_WGS84.asc.gz 3.05MB ESRI Arc ASCII
EX1206_MB_FNL_NewEngland_Survey_50m_WGS84.kmz.gz 13.70MB Compressed Keyhole Markup Language file
EX1206_MB_FNL_NewEngland_Survey_50m_WGS84.sd.gz 4.30MB Fledermaus surface
EX1206_MB_FNL_NewEngland_Survey_50m_WGS84.tif.gz 13.68MB GeoTIFF survey image
EX1206_MB_FNL_NewEngland_Survey_50m_WGS84.txt.gz 11.28MB ASCII text product
ex1206-ShipTrack.kml.gz 51.4KB Keyhole Markup Language file

Metadata Files: 9

Files File Size Description
EX1206_Multibeam.xml NCEI created ISO metadata
EX1206_COLLECTION_UNRESOLVED.xml 18.3KB XML metadata file
EX1206_Multibeam_COLLECTION_UNRESOLVED.xml 19.8KB XML metadata file
EX1206_Profile_COLLECTION_UNRESOLVED.xml 15.0KB XML metadata file
EX1206_ShipTrack_KML_UNRESOLVED.xml 16.3KB XML metadata file
EX1206_Singlebeam_COLLECTION_UNRESOLVED.xml 15.6KB XML metadata file
EX1206_WaterColumn_COLLECTION_UNRESOLVED.xml 15.7KB XML metadata file
v1_file_metadata.tar.gz 89.0KB File level metadata
v2_file_metadata.tar.gz 100.8KB File level metadata

Ancillary Files: 4

Files File Size Description
asvp.tar.gz 478.9KB Sound Speed Profiles (SSP or SVP)
failed_xbt.tar.gz 11.6KB Expendable Bathythermograph (XBT) data
support_files.tar.gz Supporting data
xbt.tar.gz 1.40MB Expendable Bathythermograph (XBT) data

Water Column Sonar Data

Water Column Sonar Data Available: WCSD Map Viewer